KE4BFX Weather Reports


time (UTC)temp
F
wind
direction
speed
knots
gust
knots
rain 1hr
in
rain 24hr
in
rain mn
in
humidity
%
barometer
mb
20260504024018 60 273 0.0 1.7 0.00 0.52 0.00 70 1021.5
20260504023018 61 273 0.0 1.7 0.00 0.52 0.00 70 1021.5
20260504022018 61 273 0.9 1.7 0.00 0.52 0.00 69 1021.5
20260504021018 62 273 0.0 2.6 0.00 0.52 0.00 68 1021.5
20260504020018 63 273 1.7 2.6 0.00 0.52 0.00 67 1021.5
20260504015018 63 273 1.7 2.6 0.00 0.52 0.00 66 1021.5
20260504014019 64 273 2.6 2.6 0.00 0.52 0.00 65 1021.5
20260504013018 64 259 1.7 2.6 0.00 0.52 0.00 63 1021.5
20260504012019 65 252 1.7 4.3 0.00 0.52 0.00 62 1021.5
20260504011018 65 307 1.7 5.2 0.00 0.52 0.00 60 1021.5
20260504010018 66 263 2.6 7.0 0.00 0.52 0.00 57 1021.5
20260504004018 69 5 0.0 0.9 0.00 0.52 0.00 50 1021.5
20260504002018 71 5 0.9 1.7 0.00 0.52 0.00 47 1021.5
20260504001019 72 5 0.0 2.6 0.00 0.52 0.00 46 1021.5
20260504000018 73 5 1.7 4.3 0.00 0.52 0.00 44 1021.5
20260503235019 74 1 2.6 4.3 0.00 0.52 0.00 42 1021.5
20260503233018 76 0 2.6 6.1 0.00 0.52 0.00 38 1021.5
20260503232019 76 350 3.5 7.0 0.00 0.52 0.00 37 1021.5
20260503225018 78 350 5.2 7.8 0.00 0.52 0.00 36 1021.5
20260503223018 78 325 6.1 7.8 0.00 0.52 0.00 35 1021.5
20260503221019 79 303 5.2 12.2 0.00 0.52 0.00 36 1021.5
20260503220019 79 340 3.5 7.8 0.00 0.52 0.00 36 1021.5
20260503215018 79 344 5.2 7.8 0.00 0.52 0.00 34 1021.5
20260503214018 79 315 7.0 10.4 0.00 0.52 0.00 36 1021.5
20260503213018 79 307 5.2 10.4 0.00 0.52 0.00 36 1021.5
20260503212019 79 341 4.3 11.3 0.00 0.52 0.00 34 1021.5
20260503211019 80 304 6.1 7.8 0.00 0.52 0.00 34 1021.5
20260503210019 80 19 2.6 6.1 0.00 0.52 0.00 36 1021.5
20260503205018 79 281 3.5 7.0 0.00 0.52 0.00 34 1021.5
20260503204018 79 315 2.6 11.3 0.00 0.52 0.00 36 1021.5
20260503203019 79 318 2.6 13.0 0.00 0.52 0.00 36 1021.5
20260503202018 79 302 2.6 10.4 0.00 0.52 0.00 31 1021.5
20260503201019 79 325 8.7 10.4 0.00 0.52 0.00 35 1021.5
20260503200018 79 344 7.0 10.4 0.00 0.52 0.00 36 1021.5
20260503194019 78 311 3.5 7.0 0.00 0.52 0.00 34 1021.5
20260503193019 78 351 4.3 12.2 0.00 0.52 0.00 35 1021.5
20260503191019 78 311 2.6 10.4 0.00 0.52 0.00 37 1021.5
20260503190019 77 313 7.8 11.3 0.00 0.52 0.00 37 1021.5
20260503185019 78 317 6.1 10.4 0.00 0.52 0.00 37 1021.5
20260503184019 77 296 6.1 13.9 0.00 0.52 0.00 40 1021.5
20260503182018 76 0 4.3 7.0 0.00 0.52 0.00 39 1021.5
20260503181019 76 311 3.5 10.4 0.00 0.52 0.00 38 1021.5
20260503180019 76 329 8.7 10.4 0.00 0.52 0.00 37 1021.5
20260503175019 76 350 2.6 10.4 0.00 0.52 0.00 38 1021.5
20260503174019 76 321 7.8 12.2 0.00 0.52 0.00 36 1021.5
20260503173019 76 325 6.1 11.3 0.00 0.52 0.00 38 1021.5
20260503172019 76 311 2.6 10.4 0.00 0.52 0.00 38 1021.5
20260503171019 76 329 5.2 8.7 0.00 0.52 0.00 38 1021.5
20260503131019 56 333 2.6 5.2 0.00 0.52 0.00 83 1021.5
20260503081020 48 336 0.0 0.9 0.00 0.73 0.00 85 1021.5
20260503072019 49 334 1.7 1.7 0.00 0.89 0.00 84 1021.5
20260503071019 49 334 1.7 2.6 0.00 0.90 0.00 84 1021.5
20260503055020 50 336 1.7 2.6 0.52 1.04 0.00 84 1021.5
20260503054020 50 336 1.7 2.6 0.52 1.04 0.00 84 1021.5
20260503053020 50 329 3.5 4.3 0.52 1.04 0.00 84 1021.5
20260503052019 50 339 2.6 2.6 0.52 1.04 0.00 84 1021.5
20260503051020 50 341 2.6 2.6 0.52 1.04 0.00 83 1021.5
20260503050020 51 342 2.6 2.6 0.00 1.43 0.00 83 1021.5
20260503044020 51 344 0.9 1.7 0.00 1.43 0.52 82 1021.5
20260503043020 52 344 1.7 2.6 0.00 1.43 0.52 81 1021.5
20260503042020 52 343 2.6 2.6 0.00 1.43 0.52 80 1021.5
20260503041020 52 343 0.9 0.9 0.00 1.43 0.52 79 1021.5
20260503040019 52 343 0.0 0.9 0.00 1.43 0.52 78 1021.5
20260503034020 53 343 0.0 1.7 0.00 1.44 0.52 77 1021.5
20260503033020 53 343 0.0 0.0 0.00 1.52 0.52 76 1021.5
20260503032020 54 343 0.0 0.9 0.00 1.55 0.52 76 1021.5
20260503025020 55 343 0.9 1.7 0.00 1.61 0.52 74 1021.5